PreDB.eu

music predb - trance, techno, house, hardstyle, hardcore
updated: 2021-04-22 19:36:10
2021-04-22 17:52:25TechnoLeandro_Taibbi-Stelle-(NATBLACK309)-WEB-2021-PTC
2021-04-22 17:51:31TechnoD._Diggler-Xtron-(LF224)-SINGLE-WEB-2021-PTC
2021-04-22 17:35:12Techno857Ian_Axide-Theory_EP-(COTD037)-WEB-2021-AOV_INT
2021-04-22 16:51:20Psychedelic631Haldolium--End_Of_The_Night-(BTRDR858)-WEB-2021-BABAS
2021-04-22 15:41:06Hardstyle858PETDuo_-_Future_Music-(CAUSE055)-WEB-2021-SRG_iNT
2021-04-22 15:29:18Hardcore620Terminal_And_Vavaculo_-_The_Awakening-(MCORE075)-WEB-2021-SRG_iNT
2021-04-22 15:29:04Hardstyle511Jeener_And_Diabela_-_In_The_Universe-(BABY078)-SINGLE-WEB-2021-SRG_iNT
2021-04-22 15:28:49Hardcore617DJ_Ded_Ft._How_Hard_And_D-Version_-_Executioner-(HKD088)-WEB-2021-SRG_iNT
2021-04-22 15:12:56Hardstyle617Vertile_-_The_New_Normal-(NBQ107PRO)-WEB-2021-SRG_iNT
2021-04-22 15:12:45Hardstyle619Rejecta_-_Never_Give_Up-(ROUGH180PRO)-WEB-2021-SRG_iNT
2021-04-22 15:12:35Hardstyle59Karl-K_-_Dont_Blink-(ACTDIG166)-SINGLE-WEB-2021-SRG_iNT
2021-04-22 14:56:22Hardstyle617MI37_-_Motivation-(ORIGINS019)-WEB-2021-SRG_iNT
2021-04-22 14:50:03Techno1079VA-First_Anniversary-(BTD004)-WEB-2021-BABAS
2021-04-22 14:49:31Techno11131Breger-The_End_Of_The_Tunnel-(ZENCD217)-WEB-2021-x0x0s
2021-04-22 14:43:35Hardstyle56Rooler_-_LOVE_U_BABY-(AR014)-SINGLE-WEB-2021-SRG
2021-04-22 14:43:24Hardstyle56Mind_Dimension_-_Let_Me_Go_(Kinetic_Remix)-(SSR016)-SINGLE-WEB-2021-SRG
2021-04-22 14:43:09Hardstyle57Jason_Payne_And_MC_Activate_-_Stand_Tall-(RSU001)-SINGLE-WEB-2021-SRG
2021-04-22 14:42:56Hardstyle58Da_Tweekaz_And_LNY_TNZ_-_So_Easy-(DWX974)-SINGLE-WEB-2021-SRG
2021-04-22 14:42:44Hardstyle510Sephyx_-_Devil_In_The_Eyes_(Diabolus)-(AOC045)-SINGLE-WEB-2021-SRG
2021-04-22 13:52:10Hardcore617DFG_-_Among_The_Stars-(OFFRAGE079)-WEB-2021-SRG_iNT
2021-04-22 10:56:48Trance844TP_One_-_With_Every_Breath-(SBLR106)-WEB-2021-L4M_INT
2021-04-22 06:43:39Melodic House23300VA_-_Beatport_April_Future_Classics_Melodic_House_and_Techno-WEB-2021
2021-04-22 06:43:21Techno14156VA_-_Beatport_Sante_Spring_Time_Groovs_Chart-WEB-2021
2021-04-22 06:42:58Techno14137VA_-_Beatport_Tim_Engelhardt_Prophecy_Chart-WEB-2021
2021-04-22 06:42:37Techno14137VA_-_Beatport_Fisherman_Apache_2.0_Chart-WEB-2021
2021-04-22 06:40:10Progressive Trance668Frailai_and_Maratone_and_Amin_Salmee_-_Nothing_Without_You-(ABPR033)-WEB-FLAC-2021
2021-04-22 06:39:52Trance17192VA_-_Beatport_Ryui_Bossen_TAOTW_Episode_080-WEB-2021
2021-04-22 06:39:34Trance14157VA_-_Beatport_Dj_XBoy_Trance_Mission_Radioshow_198_Chart-WEB-2021
2021-04-22 06:39:13Trance13139VA_-_Beatport_Chart_By_Ron_With_Leeds_-_Blue_Shape-WEB-2021
2021-04-22 06:38:41Trance24353VA_-_Beatport_Reality_Expert_Complilation_by_Psynos-WEB-2021
2021-04-22 06:36:07Hardcore12287DRS_-_Remix_Album-(TSR061)-WEB-FLAC-2021
2021-04-22 06:33:44Hardcore20150VA_-_White_Norat_The_Rise_Of_The_Gods-(PHKCD033)-WEB-2021
2021-04-22 06:31:29Hardcore58Emoticon_and_Swisky_-_Rave-(600447)-WEB-2021
2021-04-22 06:29:16Hardcore59Meduza_-_You_Must_Believe-(UGTC21115)-WEB-2021
2021-04-22 06:27:04Hardcore620Vein_-_Night_Of_Punishment-(PR044)-WEB-2021
2021-04-22 06:24:32Hardcore20481Distinction_-_Fear_Less-(FLM-0017)-WEB-FLAC-2020
2021-04-22 06:22:14Hardstyle620Royal_S_-_Fti_and_The_Switch-(POW-069)-WEB-2019
2021-04-22 06:17:42Hardcore410United_In_Dance_-_Here_Come_The_Drums-(PMIEP085)-WEB-2007-RRT
2021-04-22 06:15:28Hardcore415Dougal__Gammer__Lisa_Marie_-_Drive_Me_Crazy-(PMIEP073)-WEB-2006-RRT
2021-04-22 01:42:35Techno857Alvinho_L_Noise-Catimba_EP-(CP112)-WEB-2021-AOV_INT
2021-04-22 00:00:05Techno12112Sigvard-Mind_Over_Hats_EP-(MATERIA041)-WEB-2021-AOV_INT
2021-04-21 22:01:12Techno964Senh-Clouds_EP-(PRRUKBLK061)-WEB-2021-AOV_INT
2021-04-21 21:54:26Trance625Smound_-_Moon-WEB-2021-JUSTiFY_iNT
2021-04-21 21:54:06Trance620Saharazza_-_That_Mean_Sorry-(GRVV1239)-WEB-2021-JUSTiFY_iNT
2021-04-21 21:51:41Trance631Dr._Shubert_-_Believe-(DRSHUBERT002)-WEB-2021-JUSTiFY_iNT
2021-04-21 17:15:06Hardcore1160VA_-_Subxx_3-(FWXXDIGI129)-WEB-2021-SRG_iNT
2021-04-21 15:39:18Hardstyle49Rosell_-_Iris-(BABY077)-SINGLE-WEB-2021-SRG_iNT
2021-04-21 15:25:58Hardstyle57Venture_-_I_Gave_You_Love-(DWX973)-SINGLE-WEB-2021-SRG
2021-04-21 15:25:45Hardstyle59Sub_Sonik_Ft._KIMM_-_Break_The_Silence-(DWX972)-SINGLE-WEB-2021-SRG
2021-04-21 15:17:08Hardstyle619The_Pitcher_Ft._Nathalie_Blue_-_Limitless-(IAH040)-WEB-2021-SRG_iNT
2021-04-21 15:16:50Hardcore1055StereoType_-_My_World_EP-(QORE018PRO)-WEB-2021-SRG_iNT
2021-04-21 12:10:25Techno758Atze_Ton_and_Bryn_Green-Techno_Freak_EP-(SM003)-WEB-2021-wAx
2021-04-21 12:09:27Techno640Atze_Ton-My_Name_Is_Techno_EP-(BLV8584608)-WEB-2021-wAx
2021-04-21 12:08:32Techno749Atze_Ton-Under_The_Ground-(RR57)-WEB-2021-wAx
2021-04-21 11:59:19Techno35847Scooter-God_Save_The_Rave-2CD-FLACON
2021-04-21 11:54:10Techno23214Scooter-God_Save_The_Rave-2CD-2021-KOPiE
2021-04-21 11:29:15Trance418ZYFU-Amanece-(AST066)-SINGLE-WEB-2021-wAx
2021-04-21 11:28:09Trance418Wolky-Cerveza-SINGLE-WEB-2021-wAx
2021-04-21 11:27:14Trance411Stefre_Roland_and_Irina_Los-Liar-(YR1456)-SINGLE-WEB-2021-wAx
2021-04-21 11:26:10Trance412Dark0-Shining_Star-(YR0136)-SINGLE-WEB-2021-wAx
2021-04-21 11:20:04Trance742Gintle_Tesmonts-Guilty_As_Can_Be-(AD086)-WEB-2021-wAx
2021-04-21 11:18:17Trance741Amanda_Foxton-Uno_Morrow-(AD085)-WEB-2021-wAx
2021-04-21 11:17:50Trance414A_Klyuchinskiy_and_Paul_Verbitsky-On_The_Beach-(YL171)-SINGLE-WEB-2021-wAx
2021-04-21 11:15:30Techno16184Kid_Atari--The_Lost_Cinema_Pt_2-(IGNORE011)-WEB-2021-BABAS
2021-04-21 11:15:08Techno852Asymptote--Acid_Pulse-(SAV016)-WEB-2021-BABAS
2021-04-21 11:14:47Techno643Made_Noise--Furderhin-(IGNORE014)-WEB-2021-BABAS
2021-04-21 11:14:26Techno1098Concrete_Path--Lost_Tracks_1-(IGNORE018)-WEB-2021-BABAS
2021-04-21 10:50:36Techno648Dino_Maggiorana-Respect-(LIMBO0144)-WEB-2021-wAx
2021-04-21 10:01:10Techno19194VA-Notes_From_The_Dark_Vol_14-(VOLTCOMP997)-WEB-2021-KNOWN
2021-04-21 09:59:28Techno34277VA-Technologic_Sounds_Spring_21-(REN190)-WEB-2021-KNOWN
2021-04-21 09:44:29Techno29328VA-Peak_Time_Techno_Vol_11-(LWPTT11)-WEB-2021-KNOWN
2021-04-21 09:41:36Techno741Hector_Da_Rosa_and_Maraxe-Get_Panic-(AVK065)-WEB-2021-KNOWN
2021-04-21 09:40:03Techno19210VA-Ingredient_Music_Vol_41-(RACOMP432A)-WEB-2021-KNOWN
2021-04-21 09:38:12Techno626Massoud_Spieth-Endless-(BB441)-WEB-2021-KNOWN
2021-04-21 09:36:23Techno842The_Astronauts-They_Are_Coming_-_EP-(BOTS0105)-WEB-2021-KNOWN
2021-04-21 09:34:48Techno623We_Are_Frnds-Kaleidoscope-(TCIA00129)-WEB-2021-KNOWN
2021-04-21 09:33:58Techno634The_Second_Wave-The_Prodigal_Son-SSR064-WEB-2021-TraX
2021-04-21 09:33:15Techno34257VA-Peak_Time_Sessions_Spring_21-(REN191)-WEB-2021-KNOWN
2021-04-21 09:23:43Techno745Martin_Kinrus-Transmutation-HDRZ060-WEB-2021-TraX
2021-04-21 08:46:07Techno624Lee_Pennington-Das_Boot-(Q361)-WEB-2021-KNOWN
2021-04-21 07:58:04Techno1496VA-Urban_Techno-(KIRA053)-WEB-2021-KNOWN
2021-04-21 06:41:42Techno24294VA_-_Beatport_Exclusives_Only_Week_14-WEB-2021
2021-04-21 06:41:09Techno14143VA_-_Beatport_Chart_by_Ellen_Allien_-_AurAA_RMXS-WEB-2021
2021-04-21 06:40:43Techno23265VA_-_Traxsource_Piero_Scratch_May_Chart-WEB-2021
2021-04-21 06:40:18Techno13128VA_-_Traxsource_Robiin_If_You_Chart-WEB-2021
2021-04-21 06:37:51Uplifting Trance693Madwave_-_Dreaming_Of_A_Better_World-(ABRD248)-WEB-FLAC-2021
2021-04-21 06:37:32Trance15193VA_-_Beatport_Kenny_Palmer_Zandalar_Chart-WEB-2021
2021-04-21 06:36:47Trance16233VA_-_Beatport_Chart_by_DEKEL_-_Ancient_Future-WEB-2021
2021-04-21 06:36:28Trance14146VA_-_Beatport_ARS_3_APRIL_Chart-WEB-2021
2021-04-21 06:36:05Trance14188VA_-_Beatport_Arko_Madley_Top_10_Fav._in_April_Chart-WEB-2021
2021-04-21 06:33:32Hardcore9164VA_-_The_Tribe_Vol._4-(BBR017)-WEB-FLAC-2021
2021-04-21 06:31:15Hardcore24237VA_-_Happy_Hardcore_Underground_Volume_Two-(HUDIGI058)-WEB-2021
2021-04-21 06:24:31Hardstyle619Essence_and_Seconds_From_Space_-_Lightning_To_Fire-(9008798377190)-WEB-2021
2021-04-21 06:22:18Hardstyle510Jano_-_Who_Knows-(9145563324383)-WEB-2021
2021-04-21 06:20:12Hardcore619DJ_Entity_-_Show_U_Love___Feel_Alive-(BKR019)-WEB-2021
2021-04-21 06:17:59Hardstyle510Relusion_-_The_Power_Of_Memories-WEB-2021
2021-04-21 06:15:34Hardstyle556Darcon_Inc._-_Party_Starter-(POW-068)-WEB-FLAC-2019
2021-04-21 06:13:20Hardcore410Dougal__Gammer_-_Horns_Of_Jericho-(PMIEP049)-WEB-2009-RRT
2021-04-21 06:11:04Hardcore412Hopscotch_-_Midnight_Express-(PMIEP053)-WEB-1996-RRT
2021-04-21 01:43:50Techno644Timo_Veranta_and_Henheimer-Surge_EP-(ITR0065)-WEB-2021-PTC
2021-04-21 00:29:40Trance623Temple_One_-_Ocean_Paradise_(Kiyoi_and_Eky_Remix)-(DIGISOC219R1)-WEB-2021-L4M
2021-04-20 23:35:47Trance413RedLyner-Vertigo-(FE351)-SINGLE-WEB-2021-wAx
2021-04-20 23:22:03Trance417DJ_Buk-Heartbeat-(YAVR270)-SINGLE-WEB-2021-wAx
2021-04-20 22:52:51Hardcore519Essence-Lightning_To_Fire-WEB-2021-wAx
2021-04-20 20:14:06Techno19384Scooter-God_Save_The_Rave-(4251603261824)-WEBFLAC-2021-L4L
2021-04-20 20:03:48Trance544Armin_van_Buuren_and_Giuseppe_Ottaviani-Magico-(ASOT640)-WEBFLAC-2021-L4L
2021-04-20 19:13:10Techno855Ryogo_Yamamori--Sports-(KA05)-WEB-2021-BABAS
2021-04-20 19:12:27Techno628Marcus_Henriksson--Beta_04-(LDG023)-WEB-2021-BABAS
2021-04-20 19:09:09Techno742Ryogo_Yamamori--Delta_06-(LDG021)-WEB-2021-BABAS
2021-04-20 18:44:38Techno747Phouz--Secret_City-(MLD05)-WEB-2021-BABAS
2021-04-20 18:44:15Psychedelic11132Koan--Buckriders-(BTRDR857)-WEB-2021-BABAS
2021-04-20 18:43:53Techno626Jorge_Fons--Amnesia_EP-(SUR224)-WEB-2021-BABAS
2021-04-20 17:49:03Techno849Nico_DeNitto--Breach-Remixes-(MFR012)-WEB-2021-BABAS
2021-04-20 17:46:14Techno744Digital_Sound_System--A_Grey_November_EP-(MTPH015)-WEB-2021-BABAS
2021-04-20 16:56:29Techno740Rohar--Thorn_EP-(WRG002)-WEB-2021-BABAS
2021-04-20 16:54:06Techno867a_n_j_e--Circling-(KV019)-WEB-2021-BABAS
2021-04-20 16:17:31Trance746Vyacheslav_Sketch-10_Hours_EP-(SUR566)-WEB-2021-wAx
2021-04-20 16:16:23Trance536Suzume_Hashiya-Bhava_Nidana-(RRRNEW086)-WEB-2021-wAx
2021-04-20 16:14:22Trance935Olatoris-Magic_Forest-WEB-2021-wAx
2021-04-20 16:13:08Trance529Lebido-Gregole_EP-(SMPH469)-WEB-2021-wAx
2021-04-20 16:11:49Trance417Igor_Garam-Inspiration-(29TRANCE00030)-SINGLE-WEB-2021-wAx
2021-04-20 15:13:01Techno14137Alessandro_Crimi-Sirius-(NEX006)-WEB-2021-AGITB
2021-04-20 14:59:50Hardstyle57Spectre_-_On_A_Mission-(SCARB025)-SINGLE-WEB-2021-SRG
2021-04-20 14:59:34Hardstyle510Salvation_-_Diamonds-(PRSPX035)-SINGLE-WEB-2021-SRG
2021-04-20 14:59:25Hardstyle512Furious_Mindz_-_We_Are_As_One-(GBR120)-SINGLE-WEB-2021-SRG
2021-04-20 14:59:07Hardstyle511Firelite_-_Beyond_The_Stars-(DWX971)-SINGLE-WEB-2021-SRG
2021-04-20 14:58:47Hardstyle57Eternate_And_Prosphere_-_Waiting_For_You-(UNLR007)-SINGLE-WEB-2021-SRG
2021-04-20 12:13:09TranceVA_-_Hard_and_Dance_Compilation_Vol._46_(8_Club_Hymns_ESM)-(ESR518)-WEB-2021-ZzZz
2021-04-20 06:43:32Techno24284VA_-_Beatport_April_Future_Classics_Techno_(P-D)-WEB-2021
2021-04-20 06:43:04Techno13173VA_-_Beatport_Wowa_Dance_With_Colored_Shadows_072-WEB-2021
2021-04-20 06:42:36Techno24332VA_-_Beatport_Bridger_House_2_Trance_Ep_10_Chart-WEB-2021
2021-04-20 06:42:14Techno13132VA_-_Beatport_3DW_March_Chart-WEB-2021
2021-04-20 06:39:43Trance692LR_Uplift_-_Please_Dont_Cry-(ABSK084)-WEB-FLAC-2021
2021-04-20 06:39:11Trance13167VA_-_Beatport_Ryui_Bossen_Reazon_Session_089-WEB-2021
2021-04-20 06:38:38Trance14151VA_-_Beatport_Toregualto_I_Am_Trance_093-WEB-2021
2021-04-20 06:38:23Trance1489VA_-_Beatport_Dj_Skywalk_On_Air_Chart-WEB-2021
2021-04-20 06:38:02Trance14166VA_-_Beatport_Dj_San_Presents_El_Naya_Chart-WEB-2021
2021-04-20 06:28:59Hardcore58D-Stort_-_My_Time-(THCR0001)-WEB-2021
2021-04-20 06:26:46Hardstyle59Theboywithspec_-_Waiting-(4061707568220)-WEB-2021
2021-04-20 06:24:34Hardcore58Joey_Riot_and_Technikore_and_Suae_-_Let_Me_Hear_You_Roar-WEB-2021
2021-04-20 06:22:20Hardcore59Mr._Hope_and_Okne_-_Fxck_You-(SOC025)-WEB-2021
2021-04-20 06:17:46Hardstyle510Royal_S_-_Nightmare_(Rwnd_Remix)-(POW-062)-WEB-2019
2021-04-20 06:15:33Hardcore415Mickey_Skeedale__Dougal_-_Got_To_Go-(PMIEP110)-WEB-1997-RRT
2021-04-20 06:13:20Hardcore414Dougal__Mickey_Skeedale_-_Really_Love_You_Remix-(PMIEP066)-WEB-1995-RRT
2021-04-20 03:06:09Techno762Nikoretti_and_Oiza-Fata_Morgana-(ORANGE154)-WEB-2021-PTC
2021-04-20 00:38:01Trance513Vision_X_-_Bantai_(Haikal_Ahmad_and_Onja_Hard_Remix)-(NEU010)-SINGLE-WEB-2021-L4M_INT
2021-04-20 00:31:36Trance625Stuart_Davidson_and_District5_-_Thuban-(TR098)-WEB-2021-L4M_INT
2021-04-20 00:26:30Trance843MutoS_-_Rises__Vision_of_Hope-(ENTRMR118)-WEB-2021-L4M_INT
2021-04-20 00:26:21Trance625Fallen_Order_-_Focus-(NIX202)-WEB-2021-L4M_INT
2021-04-20 00:26:13Trance628MakeFlame_-_The_Past_on_the_Horizon-(AS1380138)-WEB-2021-L4M_INT
2021-04-20 00:26:05Trance625Sergiy_Akinshin_-_I_Feel_That-(RDX434)-WEB-2021-L4M_INT
2021-04-19 22:25:50Trance841Lau_Painey_-_Stay_Here_Forever-(AD082)-WEB-2021-ZzZz
2021-04-19 22:21:55Trance513Valiant_Vibes_-_Immortal_Regrets-(EMB018)-SINGLE-WEB-2021-ZzZz
2021-04-19 22:18:01Trance637Victor_Special_feat_Hiromori_Aso_-_Fog_At_The_Top_Of_Fuji-(MSOA005)-WEB-2021-ZzZz
2021-04-19 22:10:59Trance511Humbaba_-_Puller_Ground-(3616553247686)-SINGLE-WEB-2021-ZzZz
2021-04-19 22:07:34Trance627Pavlenty_-_Mood-(YAWR276)-WEB-2021-ZzZz
2021-04-19 21:58:25Techno411Domino_-_Oxia_(Furax_Cover_Remaster)-WEB-2021-SOB_INT
2021-04-19 21:25:43Trance624PITTARIUS_CODE_and_Steklo_-_Ill_Be_Here-(SV007)-WEB-2021-L4M_INT
2021-04-19 20:52:00Trance517Ocoro_-_Choa_(Incl_Original_Mix)-(TR139)-SINGLE-WEB-2021-ZzZz
2021-04-19 20:21:16Techno981Pablo_Wesler-Title_Still_Irrelevant_EP-(NLD546)-WEB-2021-PTC
2021-04-19 20:20:52Techno524DJ_Dextro-Delta-(ONHCET094)-WEB-2021-PTC
2021-04-19 19:59:09Trance628FAWZY_and_JOSE_-_Club_Lights_(Incl_Gayax_Remix)-(NHW069)-WEB-2021-ZzZz
2021-04-19 19:49:29Techno975Wast-Emersion_EP-(JLS003)-WEB-2021-AOV_INT
2021-04-19 19:48:33Techno854Vegim-From_Another_Side-(TMM275)-WEB-2021-AOV_INT
2021-04-19 19:48:16Techno1085Hertz-Antidote-(SWAY34)-WEB-2021-AOV_INT
2021-04-19 19:48:04Techno849Uncrat-Exclaim_EP-(MOST03)-WEB-2021-AOV_INT
2021-04-19 19:47:44Techno1087False_Witness-Third_Space-(EMS14)-WEB-2021-AOV_INT
2021-04-19 17:23:08Trance519Rashidy_-_Hallucinations-(TAR138162)-SINGLE-WEB-2021-L4M_INT
2021-04-19 17:23:01Trance511Alexander_Komarov_-_Some_Everything-(TAR2116)-SINGLE-WEB-2021-L4M_INT
2021-04-19 17:22:51Trance515Anve_-_Night_Time_(Dan_Schneider_Remix)-(BM083)-SINGLE-WEB-2021-L4M_INT
2021-04-19 17:22:44Trance625Nuestro_-_Papi-(AEP436)-WEB-2021-L4M_INT
2021-04-19 17:22:35Trance623Alan_Sharkey_-_The_Hidden_Path-(HTE121)-WEB-2021-L4M_INT
2021-04-19 17:22:27Trance515Tim_Lighterz_-_Hyper_(Dan_Schneider_Extended_Remix)-(KSX501)-SINGLE-WEB-2021-L4M_INT
2021-04-19 17:22:17Trance620Michael_Milov_-_Born_In_Fire-(BASE118A)-WEB-2021-L4M_INT
2021-04-19 17:22:08Trance514Pulse_and_Sphere_-_The_Distance-(INTER184)-SINGLE-WEB-2021-L4M_INT
2021-04-19 17:21:58Trance850Darren_OBrien_and_That_Girl_-_Dancing_In_The_Rain-(AE439)-WEB-2021-L4M_INT
2021-04-19 17:21:50Trance622Adip_Kiyoi_-_Discovery-(TRUE165A)-WEB-2021-L4M_INT
2021-04-19 17:02:55Techno29384VA-Nothing_But____Hard_Techno_Anthems_Vol._02-(NBHTA02)-WEB-2021-COS_INT
2021-04-19 16:14:57Techno17473Van_Czar-Ibiza_Legacy-(BBC20213053)-WEBFLAC-2021-L4L
2021-04-19 16:12:41Trance15495Narel-Losing_Adequacy-(BBC20213054)-WEBFLAC-2021-L4L
2021-04-19 16:12:14Trance27540Nale-Forever-(BBC20213033)-WEBFLAC-2021-L4L
2021-04-19 16:11:36Trance16711Lolo-1_+_1_=_3-(BBC20213060)-WEBFLAC-2021-L4L
2021-04-19 16:10:41Trance13450Francis_Torres-Horizons-(BBC20213061)-WEBFLAC-2021-L4L
2021-04-19 16:09:53Trance13507D-View-Out_Of_Distance-(BBC20213026)-WEBFLAC-2021-L4L
2021-04-19 16:09:26Trance20857DJ_Vincenzo-My_Biosphere-(BBC2016350)-WEBFLAC-2021-L4L
2021-04-19 16:08:29Trance16727Bjoern_Small-A_Sense_Of_Occasion-(BBC2015079)-WEBFLAC-2021-L4L
2021-04-19 16:08:17Trance13363Azior-Irrepressible-(BBC2016495)-WEBFLAC-2021-L4L
2021-04-19 16:08:08Trance16363Auratune-Inhale,_Exhale-(BBC20213064)-WEBFLAC-2021-L4L
2021-04-19 15:51:02Trance630Robert_Nickson_-_Sundown-(PURETRANCE208)-WEB-2021-L4M_INT
2021-04-19 15:50:58Trance621Brian_Murphy_-_Over_The_Horizon-(SV008)-WEB-2021-L4M_INT
2021-04-19 15:16:31Hardstyle615The_Saraphim_-_Youre_The_Reason-(FUSION435)-WEB-2021-SRG
2021-04-19 15:16:15Hardstyle58Legion_-_The_Broken-(MYM023)-SINGLE-WEB-2021-SRG
2021-04-19 15:15:56Hardstyle510Fraw_And_Lea_Konig_-_Equality-(GBD317)-SINGLE-WEB-2021-SRG
2021-04-19 15:15:42Hardstyle59Forever_Lost_-_High_As_You-(DWX970)-SINGLE-WEB-2021-SRG
2021-04-19 14:20:27Trance625Tom_Bro_-_Play-(SUBMISSION249)-WEB-2021-ZzZz
2021-04-19 11:36:23Psychedelic413Warp_Brothers_and_Maharlika_Musika_-_Kanlaon-(BTRDR856)-SINGLE-WEB-2021-JUSTiFY_iNT
2021-04-19 11:36:00Trance1073Vladislav_Maximov_-_Airbreath_(Remixes)-(ASR296)-WEB-2021-JUSTiFY_iNT
2021-04-19 11:35:27Techno615The_Saraphim_-_Youre_The_Reason-(FUSION435)-WEB-2021-JUSTiFY_iNT
2021-04-19 11:34:56Trance845Ross_Cairns_-_Nothing_I_Can_Do-(SUBMISSION253)-WEB-2021-JUSTiFY_iNT
2021-04-19 11:34:27Trance417Roman_Sand_-_In_Your_Eyes-(DMAX678)-SINGLE-WEB-2021-JUSTiFY_iNT
2021-04-19 11:34:04Trance516Roman_Olefirenko_-_Aliena-(DMAX679)-SINGLE-WEB-2021-JUSTiFY_iNT
2021-04-19 11:33:44Trance521Patrice_-_Infinite-(UPLY167)-WEB-2021-JUSTiFY_iNT
2021-04-19 11:33:16Trance523Mewes_-_Faial-(SSP015)-WEB-2021-JUSTiFY_iNT
2021-04-19 11:32:50Psychedelic528Monolock_-_Acid_Drop-(CAT478483)-WEB-2021-JUSTiFY_iNT
2021-04-19 11:32:05Trance849Hidden_Tigress_and_Arsen_Gold_-_When_Lighting_Strikes-(ESK114)-WEB-2021-JUSTiFY_iNT
2021-04-19 11:31:37Techno59Forever_Lost_-_High_As_You_(Extended_Mix)-(DWX970)-SINGLE-WEB-2021-JUSTiFY_iNT
2021-04-19 11:31:18Trance527Aki_Harunari_-_Pang_Of_Nostalgia-(VRS118)-WEB-2021-JUSTiFY_iNT
2021-04-19 10:11:38Trance627Madwave_-_Dreaming_Of_A_Better_World-(ABRD248)-WEB-2021-ZzZz
2021-04-19 08:49:20Trance1081Paul_Priestley_and_Costa_Pantazis_-_Artemis_Trail-(MB007)-WEB-2021-ZzZz
2021-04-19 08:04:46Trance515Oscar_Anzo_-_All_Possible_Futures-(LED105)-SINGLE-WEB-2021-ZzZz
2021-04-19 06:35:08Techno22282VA_-_Beatport_April_Closing_Essentials_Minimal_Deep_Tech-WEB-2021
2021-04-19 06:34:46Trance14131VA_-_Beatport_Chart_by_Kjuna_-_The_Most_Awesome_Tunes_March-WEB-2021
2021-04-19 06:34:08Techno23189VA_-_Beatport_Deft_T_E_L_E_P_O_R_T_E_R_S_Chart-WEB-2021
2021-04-19 06:33:43Techno14141VA_-_Traxsource_Edwin_Oosterwal_Without_You_Chart-WEB-2021
2021-04-19 06:33:15Trance14124VA_-_Beatport_Tranceformer_Proyecto_Uno_March_21-WEB-2021
2021-04-19 06:32:37Trance17189VA_-_Beatport_Projekt_Beats_Episode_037-WEB-2021
2021-04-19 06:32:18Trance13145VA_-_Beatport_Artento_Divini_D.A.D.A_Chart_March-WEB-2021
2021-04-19 06:31:27Trance29477VA_-_Beatport_Chart_by_Andrius_Ivanovas_-_Progressive_Classics-WEB-2021
2021-04-19 06:29:07Hardstyle510Relusion_-_The_Power_Of_Memories-(K1R119)-WEB-2021
2021-04-19 06:26:54Hardstyle58Babaz_-_Runnin_Away-(003BTU)-WEB-2021
2021-04-19 06:24:36Hardstyle44357VA_-_Hardstyle_Maxximum_Vol_1-(MOR30806)-WEB-2021
2021-04-19 06:22:17Hardcore57Carles_S_and_Knutek_-_Stay_Away-(HF74)-WEB-2021
2021-04-19 06:20:04Hardcore516Mugi_-_Duffman_Base-(MODMKN034)-WEB-2021
2021-04-19 06:17:49Hardstyle511Dysth_-_Leveling_Up-(9145563324369)-WEB-2021
2021-04-19 06:15:34Hardstyle510Adrelina_-_Reflections-(POW-061)-WEB-2019
2021-04-19 06:13:21Hardcore415Transit_-_Count_The_Hours_(Dougal_And_Gammer_Remix)-(PMIEP094)-WEB-2007-RRT
2021-04-19 06:11:04Hardcore414Dr._who_-_love_of_my_life-(PMIEP086)-WEB-1996-RRT
2021-04-19 01:42:30Techno6159Aitra-In_Excelsis-(FOR088)-WEBFLAC-2021-L4L
2021-04-19 01:42:02Hardcore622Riko_and_Bridgey-B_-_Tell_Me_A_Lie-(CR0206)-WEB-2021-ZzZz
2021-04-18 23:34:17Techno1073MONOMINDED-Observer-WEB-2021-KNOWN
2021-04-18 22:21:13Trance411Middlestones-The_Meaning-SINGLE-WEB-2021-wAx
2021-04-18 20:53:53Trance532Aleksey_Litunov_ft_Claire_Maier-Time_and_Space-(TF139)-WEB-2021-wAx
2021-04-18 20:46:03Trance410DaWTone-Weekday-(NS964)-SINGLE-WEB-2021-wAx
2021-04-18 20:45:20Trance416AREO-Flyja-(YL170)-SINGLE-WEB-2021-wAx
2021-04-18 19:55:55Trance413Alphar-Second-(YV249)-SINGLE-WEB-2021-wAx
2021-04-18 19:55:33Trance53279rpm-Rush-(OZR058)-WEB-2021-wAx
2021-04-18 19:33:38Psychedelic632Originals_x_Xerox--Dusted-WEB-2021-BABAS
2021-04-18 19:20:55Techno738Kettama--G-TOWN_001-(GTOWN001)-WEB-2021-BABAS
2021-04-18 19:19:49Techno746Eme_Kulhnek--Voices_Of_Arturian_EP-(VCS011)-WEB-2021-BABAS
2021-04-18 19:19:06Techno967Syrette--Speaking_Truth_To_Power-(STG023)-WEB-2021-BABAS
2021-04-18 18:35:12Techno633Asaf_Peer--Beliefs-(TH350)-WEB-2021-BABAS
2021-04-18 18:21:34Techno750Coyu-Technostalgia_EP_5-(SUARA425)-WEB-2021-PTC
2021-04-18 18:11:36Techno857Optimuss-Orchestra-(OFF235)-WEB-2021-AOV_INT
2021-04-18 18:11:18Techno742Giovanni_Carozza-Nova-(ODD050)-WEB-2021-AOV_INT
2021-04-18 17:49:45Techno642TNTS-Dopamine-(JANNOWITZ088)-WEB-2021-PTC
2021-04-18 17:48:13Techno526E-Runner_feat._Dee_Dolphin-Horror_States_EP-(TRANS201)-WEB-2021-PTC
2021-04-18 17:40:51Trance49Soundway-A_New_Beggining-(VGR017)-SINGLE-WEB-2021-wAx
2021-04-18 17:26:00Hardstyle8290VA_-_The_Sound_Of_Hardstyle-Home_Edition_2-(BYMCD152)-2CD-2021-SRG
2021-04-18 17:25:41Hardstyle618System_Of_Loudness_-_Problems-(DT166)-WEB-2021-SRG_iNT
2021-04-18 17:25:29Hardstyle618Code_Black_And_Sickddellz_-_Fade_Away-(IAH039)-WEB-2021-SRG_iNT
2021-04-18 17:21:57Techno832Kettama-G_TOWN_001-(GTOWN001)-VINYL-2021-BF
2021-04-18 17:04:18Techno1088VA-100th_Anniversary_Compilation-(SA100)-WEB-2021-AOV_INT
2021-04-18 16:49:45Hardcore410Jakka_B-Warcry-(KTRAR034)-SINGLE-WEB-2021-wAx
2021-04-18 16:39:00Trance523Brian_Murphy-Oblivion-(GRVV1227)-WEB-2021-wAx
2021-04-18 16:01:22Trance415Tommy_Farrow-Between_Two_Planets_(Extended_Mix)-SINGLE-WEB-2021-wAx
2021-04-18 15:50:26Techno977A_Thousand_Details_And_Dykkon-Visits-(DKNS029)-WEB-2021-AOV_INT
2021-04-18 15:50:02Techno749Dichter-Defektowana-(DRE291)-WEB-2021-AOV_INT
2021-04-18 15:49:39Techno1077OBCDN_And_Don_Woezik-Divination-(RAW009)-WEB-2021-AOV_INT
2021-04-18 15:49:07Techno854Coyu-Technostalgia_EP_5-(SUARA425)-WEB-2021-AOV_INT
2021-04-18 15:01:46Trance414Mahyar_Kanner-Pyramids-(KAN007)-SINGLE-WEB-2021-wAx
2021-04-18 14:43:50Trance845Xpectra_-_Walk_On_Water_(incl._NyTiGen_and_Ruslan_Borisov_Remix)-(2RR087)-WEB-2021-L4M_INT
2021-04-18 14:43:40Trance624Dan_Iwan_-_Nena-(RDXM150)-WEB-2021-L4M_INT
2021-04-18 14:43:32Trance617Brandon_Michaels_-_Heart_Of_Fire-(EA095)-WEB-2021-L4M_INT
2021-04-18 14:43:23Trance850Arsen_Gold_and_Hidden_Tigress_-_When_Lightning_Strikes-(ESK114)-WEB-2021-L4M_INT
2021-04-18 14:20:04Trance627Pablo_Artigas_and_Clara_Yates_-_Wild_and_Free_(Kinetica_Remix)-(FSOE515)-WEB-2021-L4M_INT
2021-04-18 14:19:56Trance513Manuel_Le_Saux_and_Db_Mokk_-_Zero-(RGEN077)-SINGLE-WEB-2021-L4M_INT
2021-04-18 14:19:49Trance627Everlight_and_B3_pres._Signal_Theory_-_Transonic-(NKF049)-WEB-2021-L4M_INT
2021-04-18 12:02:59Trance16202VA_-_Drop_Bear_Digital_Bundle_3-(DBDB03)-WEB-2021-ZzZz
2021-04-18 11:05:59Hardcore612BRAMD_-_Sinking-(4061707548666)-WEB-2021-ZzZz
2021-04-18 09:40:34Techno623Silentwave--x0x0x__Dream_303_Drone-(OWR036)-WEB-2021-BABAS
2021-04-18 09:17:59Psychedelic517Psylocybins--Teleport_Through_Music-(BTRDR854)-SINGLE-WEB-2021-BABAS
2021-04-18 08:09:30Techno985Aura_Minimum-Soul_Warding-SV48-Retail-CD-2021-BFHMP3
2021-04-18 06:39:00Techno22258VA_-_Beatport_April_Future_Classics_Minimal_Deep_Tech-WEB-2021
2021-04-18 06:38:35Techno23246VA_-_Beatport_Nakadia_Rave_To_Save_With_Desperados_Chart-WEB-2021
2021-04-18 06:37:58Techno13141VA_-_Traxsource_Riva_Starr_Beat_Freak_Chart-WEB-2021
2021-04-18 06:37:28Techno13138VA_-_Beatport_Marco_Bailey_Free_The_Rave_Chart-WEB-2021
2021-04-18 06:37:10Trance16182VA_-_Beatport_Ben_Projekt_Beats_Episode_036-WEB-2021
2021-04-18 06:36:29Trance14164VA_-_Beatport_Chart_By_Mysticage_-_The_Way_To_A_Progressive_Land-WEB-2021
2021-04-18 06:36:10Trance14173VA_-_Beatport_Irregularity_Chart_By_Oxytocin-WEB-2021
2021-04-18 06:35:48Trance14182VA_-_Beatport_Invisible_Reality_Spectral_Dimension_Remixed_Charts-WEB-2021
2021-04-18 06:33:33Hardcore57Andy_The_Core_and_Lil_Texas_-_Rockstar-WEB-2021
2021-04-18 06:31:21Hardstyle57Jeener_-_Unstoppable-WEB-2021
2021-04-18 06:29:06Hardcore58Re-Fuzz_-_Bury_You_Alive-WEB-2021
2021-04-18 06:26:53Hardstyle59Stirrz_-_Memories-(4061707563584)-WEB-2021
2021-04-18 06:24:40Hardstyle58Rvrs_-_Star-(9145563324376)-WEB-2021
2021-04-18 06:22:28Hardcore727Billy_Manik_-_King_Of_The_Jungle-(KRH236ep)-WEB-2021
2021-04-18 06:20:21Hardstyle56Aversion_-_The_Dream-WEB-2021
2021-04-18 06:17:53Hardcore10157VA_-_We_Roar-(PR024)-WEB-FLAC-2020
2021-04-18 06:15:37Hardstyle58Double_Impact_-_Try_This-(POW-059)-WEB-2019
2021-04-18 06:13:22Hardcore752Billy_No_Mates_-_Until_Morning-(HCRD026)-Ep-WEB-2015-RRT
2021-04-18 06:11:04Hardcore412Yell-O-Phase_-_Kills_Your_Brain-(HCRD018)-WEB-2014-RRT
2021-04-18 03:42:34Techno631Hellomonkey_And_Daniel_Nike-Run_Deep-(IAMT253)-WEB-2021-AOV_INT
2021-04-18 03:34:15Techno632HXTC-Space_Mission-(IAMTRED044)-WEB-2021-AOV_INT
2021-04-18 00:21:32Techno12108VA-Texture_Variations_Vol_2-(TXTRVA002)-WEB-2021-BABAS
2021-04-18 00:19:18Techno867Skaki--Goblin_EP-(ICDO125)-WEB-2021-BABAS
2021-04-17 23:54:12Psychedelic13168Distorted_Forest-Creepy_Side-(STONECD024)-WEB-2021-x0x0s
2021-04-17 23:54:07Psychedelic518Need_One-Under_The_Shadow-(GOAEP402)-SINGLE-WEB-2021-x0x0s
2021-04-17 23:53:59Psychedelic633Neutro-5_Senses-(INM1DIGI586)-WEB-2021-x0x0s
2021-04-17 23:53:52Psychedelic16214VA-Attitude_Adjustment_3-(PRVDA09)-WEB-2021-x0x0s
2021-04-17 23:52:44Psychedelic640Magic_Look-Profound_Danger-(SPIT236)-WEB-2021-x0x0s
2021-04-17 23:51:56Psychedelic517Electric_Universe-Millenia_(Faders_and_Spectra_Sonics_Remix)-(SACTEC146)-SINGLE-WEB-2021-x0x0s
2021-04-17 19:08:46Techno857Inner_City--Ahnonghay_EP-(NWKT22)-WEB-2021-OMA
2021-04-17 17:05:15Trance415Tioan_and_Christopher_Maison-Blitz-(VRC067)-SINGLE-WEB-2021-wAx
2021-04-17 15:47:23Techno643Tony_Romanello-Hardwired-(KLR039)-WEB-2021-wAx
2021-04-17 14:57:14Trance522Mikey_Dickens-VE_Day-(MCV110)-WEB-2021-wAx
2021-04-17 13:13:14Hardcore516Cafdaly_-_Tierra_Azteca-(4061707585227)-SINGLE-WEB-SP-2021-ZzZz
2021-04-17 12:18:38Techno511Ron_Costa-Superstition-PTBL183-SINGLE-WEB-2021-TraX
2021-04-17 12:13:18Techno746Zerotonine_(DE)-Spacecraft_EP-RSZ222-WEB-2021-TraX
2021-04-17 12:09:17Techno630RSRRCT-Dont_Stop_The_Overdrive-CODEX114-WEB-2021-TraX
2021-04-17 11:37:25Trance48Spaded-Twister-(NM0229SI190TR13)-SINGLE-WEB-2021-wAx
2021-04-17 10:38:57Techno968VA-Collective_Process_Vol_1-(SOMA605D)-WEB-2021-AOV_INT
2021-04-17 10:38:40Techno749Dok_And_Martin-Temptations_EP-(WATB066)-WEB-2021-AOV_INT
2021-04-17 08:46:00Trance523DJ_MKK-The_Vibes_2021_(Remix)-WEB-2021-wAx
2021-04-17 06:39:15Techno24312VA_-_Beatport_April_The_Shortlist_Minimal_Deep_Tech-WEB-2021
2021-04-17 06:38:41Techno29378VA_-_Traxsource_Essential_Techno_2021-03-22-WEB-2021
2021-04-17 06:38:16Progressive House13148VA_-_Beatport_Chart_By_Electric_Dada_-_Jan_De_Vice_03-2021-WEB-2021
2021-04-17 06:37:57Techno14161VA_-_Beatport_Charlotte_De_Witte_303_Universe_Chart-WEB-2021
2021-04-17 06:37:20Trance13153VA_-_Beatport_Madwave_Vooteta_Top_10_Chart-WEB-2021
2021-04-17 06:37:00Trance14155VA_-_Beatport_Rydex_Elements_Chart-WEB-2021
2021-04-17 06:36:21Trance15195VA_-_Beatport_Pureenergy_March_Sound_Lab_Chart-WEB-2021
2021-04-17 06:35:40Trance17184VA_-_Beatport_Alex_Van_Sanders_Yeiskomp_Miscellany_124-WEB-2021
2021-04-17 06:33:24Hardstyle524DJ_Thera_vs_Geck-o_-_Deux_Remixes_Sil_Vous_Plait-(TCC018)-WEB-2021
2021-04-17 06:31:11Hardstyle58Hpnotic_and_Kamikaze_-_Move_Your_Body-(KTRAR029)-WEB-2021
2021-04-17 06:28:58Hardcore842Execrate_-_Raging_Inside-(VDR016)-WEB-2021
2021-04-17 06:26:44Hardcore511Unit_and_Aksys_-_Odyssey-(UGTC21117)-WEB-2021
2021-04-17 06:24:30Hardstyle56Ausono_-_Fairytale-(4061707575839)-WEB-2021
2021-04-17 06:22:17Hardcore57Drokz_-_I_Was_Born_Hardcore_And_Raised_To_Be_Terror-(TSR057)-WEB-2021
2021-04-17 06:20:04Hardstyle59Valido_-_Freefall-WEB-2021
2021-04-17 06:17:50Hardstyle58Taa_and_MC_Alee_-_Pitch_It_Up-(POW-058)-WEB-2019
2021-04-17 06:15:36Hardstyle1283Edelritter_-_Megalith-(WAV-018)-WEB-2018
2021-04-17 06:13:21Hardcore416Dj_Wislov_-_Evil_Dead-(HCRD019)-WEB-2014-RRT
2021-04-17 06:11:04Hardcore413Dougal__Gammer_-_Lifting_Me_Higher-(PMIEP003)-WEB-2011-RRT
2021-04-17 04:32:45Techno863Semodi-Keep_On_Shining-(BP10222021)-WEB-2021-AOV_INT
2021-04-17 00:15:06Trance527Kenan_Teke-Oxygene_Pt_8-(WAT025)-WEB-2021-wAx
2021-04-16 23:26:40Psychedelic12133Yudhisthira-Future_Nature-WEB-2021-FALCON_INT
2021-04-16 23:26:14Psychedelic417Volcano-Rollercoaster-SINGLE-WEB-2021-FALCON
2021-04-16 23:25:47Psychedelic13144VA-Macrodosing-WEB-2021-FALCON_INT
2021-04-16 23:25:20Psychedelic21348VA-Been_There-Compiled_By_Perfect_Stranger-WEB-2021-FALCON
2021-04-16 23:24:53Psychedelic12141VA-Artefractal-Compiled_By_Atomo-WEB-2021-FALCON_INT
2021-04-16 23:24:26Psychedelic49Unseen_Dimensions-Real_High_Physis_Remix-SINGLE-WEB-2021-FALCON_INT
2021-04-16 23:23:57Psychedelic536Trillian-World_Of_Fantasy-WEB-2021-FALCON
2021-04-16 23:23:30Psychedelic413Spectro_Senses_And_Synthatic-Sinners-SINGLE-WEB-2021-FALCON_INT
2021-04-16 23:23:03Psychedelic415Solid_Iron-Iron_Flower-SINGLE-WEB-2021-FALCON_INT
2021-04-16 23:22:36Psychedelic414Shouldb3banned-Genesis-SINGLE-WEB-2021-FALCON_INT
2021-04-16 23:22:09Psychedelic528Quasars-Unknown_Source-WEB-2021-FALCON_INT
2021-04-16 23:21:41Psychedelic411Psylence_Mind-Flat_Earth-SINGLE-WEB-2021-FALCON_INT
2021-04-16 23:21:15Psychedelic414Psychomotorica-Stalker-SINGLE-WEB-2021-FALCON_INT
2021-04-16 23:20:49Psychedelic418Psilocybe_Project-Altissia-SINGLE-WEB-2021-FALCON
2021-04-16 23:20:22Psychedelic410Pribe-I_Be_As_I_Am_Aatma_And_Kurtt_Remix-SINGLE-WEB-2021-FALCON_INT
2021-04-16 23:19:53Psychedelic414LUM1NA-Terra-SINGLE-WEB-2021-FALCON_INT
2021-04-16 23:19:26Psychedelic48Kore-G_Vs._Reverence_And_Jilax-Desert-SINGLE-WEB-2021-FALCON_INT
2021-04-16 23:18:59Psychedelic415Kishal_And_Magic_Mizrahi-Existence-SINGLE-WEB-2021-FALCON
2021-04-16 23:18:32Psychedelic411Juiced_Vs._Hybrid_Machines_And_Bl4ck_Hole-All_In_My_Head-SINGLE-WEB-2021-FALCON_INT
2021-04-16 23:18:03Psychedelic415Ital_And_Improvement-Microdose-SINGLE-WEB-2021-FALCON_INT
2021-04-16 23:17:37Psychedelic529Cymatic_Effects-Analog_Race-WEB-2021-FALCON_INT
2021-04-16 23:17:11Psychedelic48Browkan_And_Dktronic-Inside_Thoughts-SINGLE-WEB-2021-FALCON_INT
2021-04-16 23:16:42Psychedelic528Asarualim-Higher_By_Clarity-WEB-2021-FALCON_INT
2021-04-16 23:16:16Psychedelic413Aida_And_Thirsty_Amigo-Without_You-SINGLE-WEB-2021-FALCON_INT
2021-04-16 23:15:49Psychedelic13143Aday-Innerscapable_Oddysey-WEB-2021-FALCON_INT
2021-04-16 22:04:41????Semper-_Nonchalant-(DISCOVER277)-SINGLE-WEB-2021-test
2021-04-16 21:26:00Trance515Semper_T_-_Nonchalant-(DISCOVER277)-SINGLE-WEB-2021-ZzZz
2021-04-16 21:23:44Techno736Ricardo_Garduno-Beyond_The_Universe-(ANA003LTD)-WEB-2021-B2R
2021-04-16 21:22:03Trance57Adip_Kiyoi_and_Amin_Salmee_-_Wolves-SINGLE-WEB-2021-ZzZz
2021-04-16 15:26:52Techno852VA-Edit_Select_107_D-(EDITSELECT107D)-WEB-2021-BABAS
2021-04-16 14:53:54Trance16110VA_-_Reaching_Altitude_Special_Selections_Pt._6-(RA151)-WEB-2021-L4M_INT
2021-04-16 14:53:40Trance626Protoculture_-_Red_Point-(ASOT642)-WEB-2021-L4M_INT
2021-04-16 14:53:28Trance513Markus_Schulz_and_Daxson_-_Vortex_(Extended_Mix)-(BH11210)-SINGLE-WEB-2021-L4M_INT
2021-04-16 14:53:10Trance625Andrew_Rayel_-_My_Harmony_(FYH_250_Anthem)-(FYH001)-WEB-2021-L4M_INT
2021-04-16 14:25:27Techno644Sam_Paganini--Zoe-(JAMBACKCATALOGUE01)-REMASTERED-WEB-2021-BABAS
2021-04-16 14:03:38Hardcore4269Rinse_FM_Hixxy-Squad-E_Tribute_Mix-LIVE-WEB-2021-XTC_iNT
2021-04-16 13:54:47Trance613MaRLo_and_Quench_-_Dreams_2021-(VBLK0441)-WEB-2021-L4M_INT
2021-04-16 13:54:30Trance625Luke_Bond_ft._Paul_Aiden_-_As_One-(ARMD1583)-WEB-2021-L4M_INT
2021-04-16 13:54:28Trance617We_Are_Loud_-_Collide-(FLASH229)-WEB-2021-L4M_INT
2021-04-16 13:54:15Trance730Coast_2_Coast_ft._Discovery_-_Home_(Maarten_de_Jong_Remix)-(WAO138318)-WEB-2021-L4M_INT
2021-04-16 13:42:24Techno970Orbe--Retrofuture_EP-(ARR06)-WEB-2021-BABAS
2021-04-16 13:18:43Techno868VA-Prologue-(MNMTPROLOGUE)-WEB-2021-AGITB
2021-04-16 13:14:04Hardcore59System_Of_Fury_-_You_Have_No_Right-(NMR030)-SINGLE-WEB-2021-SRG_iNT
2021-04-16 13:09:41Hardstyle58Refuzion_And_Mandy_Ft._Amanda_Collis_-_More_Than_A_Human-(DWX969)-SINGLE-WEB-2021-SRG
2021-04-16 13:00:59Techno875ASC-Sacred_Sevens_III-(MODCATHSS03)-WEB-2021-AGITB
2021-04-16 12:52:15Trance1079Beam_-_Odin_(Remixes)-(4056813264470)-WEB-2021-ZzZz
2021-04-16 12:40:07Trance291209VA-Black_Hole_Trance_Music_02-21-(BHDC624)-WEBFLAC-2021-L4L
2021-04-16 12:39:02Trance291233VA-Black_Hole_Trance_Music_03-21-(BHDC627)-WEBFLAC-2021-L4L
2021-04-16 12:38:51Trance291214VA-Black_Hole_Trance_Music_04-21-(BHDC629)-WEBFLAC-2021-L4L
2021-04-16 11:59:10Techno639Unknown--PART_II-(ARR08)-WEB-2021-BABAS
2021-04-16 11:58:28Techno970DxS--Differential_Forms_EP-(ARR05)-WEB-2021-BABAS
2021-04-16 11:57:59Techno865Eduardo_De_La_Calle--Distortion_Theory_III-WEB-2021-BABAS
2021-04-16 11:57:30Techno629Unknown--PART_I-(ARR07)-WEB-2021-BABAS
2021-04-16 11:57:10Techno863Eduardo_De_La_Calle--Distortion_Theory_III_(The_Remixes)-(ARR04)-WEB-2021-BABAS
2021-04-16 11:50:58Hardcore844Wedlock-Im_The_Fuck_You_Man-WEB-1994-XTC_iNT
2021-04-16 10:36:35Hardcore27366VA-Nu_Energy_Records_-_Digital_Re-Masters_Release_51-60-(NUNRG51TO60RM)-WEB-2021-COS_INT
2021-04-16 09:44:53Trance513Zeus_-_Elemental-(ITPG013E)-SINGLE-WEB-2021-L4M_INT
2021-04-16 09:44:46Trance517Corin_Bayley_pres._R3BORN3_-_Buying_Time-(PTN064)-SINGLE-WEB-2021-L4M_INT
2021-04-16 09:35:02Trance619Roman_Messer_and_Sarah_De_Warren_-_Risk_It_All-(SND258A)-WEB-2021-L4M_INT
2021-04-16 09:34:53Trance618Chris_Burke_-_Oracle-(DARK081A)-WEB-2021-L4M_INT
2021-04-16 09:26:13Trance848Dustin_Husain_-_Fantasy_EP-(MNEOS020)-WEB-2021-L4M_INT
2021-04-16 09:26:03Trance624Matt_Bukovski_-_Survival-(SURR011)-WEB-2021-L4M_INT
2021-04-16 09:25:56Trance725Armin_van_Buuren_ft._RBVLN_-_Weight_Of_The_World_(Club_Mix)-(ARMD1584)-WEB-2021-L4M_INT
2021-04-16 08:35:39Techno628Solarstone_-_Restless_4._A.M._(Jam_El_Mar_Remix)-(BH11100)-WEB-2021-L4M_INT
2021-04-16 08:31:53Trance847ilan_Bluestone_ft._Giuseppe_de_Luca_-_Look_At_Me_Now__Stardust_and_Madness-(ANJ699D)-WEB-2021-L4M_INT
2021-04-16 08:29:19Trance26242Steve_Brain_-_1986_(The_Remixes)-(ENPROG415R)-WEB-2021-L4M_INT